Weather History for CWEP - October, 2012

Change the Weather History Date:

Wednesday, October 17, 2012

  Actual Average Record
Temperature  
Mean Temperature 45 °F -  
Max Temperature 50 °F - - ()
Min Temperature 40 °F - - ()
Degree Days  
Heating Degree Days 20    
Moisture  
Dew Point 40 °F    
Average Humidity 79    
Maximum Humidity 91    
Minimum Humidity 67    
Precipitation  
Precipitation 0.00 in - - ()
Sea Level Pressure  
Sea Level Pressure 29.71 in    
Wind  
Wind Speed 14 mph ()    
Max Wind Speed 21 mph    
Max Gust Speed 28 mph    
T = Trace of Precipitation, MM = Missing Value Source: Averaged Metar Reports

Daily Weather History Graph

Daily Weather History Graph

Search for Another Location

Airport or City:

Trip Planner

Search our weather history database for the weather conditions in past years. The results will help you decide how hot, cold, wet, or windy it might be!

Date:

Astronomy

Oct. 17, 2012 Rise Set
Actual Time 7:28 AM ADT 6:16 PM ADT
Civil Twilight 6:58 AM ADT 6:47 PM ADT
Nautical Twilight 6:23 AM ADT 7:22 PM ADT
Astronomical Twilight 5:48 AM ADT 7:57 PM ADT
Moon 10:08 AM ADT (10/17) 7:37 PM ADT (10/17)
Length of Visible Light 11h 49m
Length of Day
10h 48m
Waxing Crescent, 6% of the Moon is Illuminated
Oct 17
Waxing Crescent
Oct 22
First Quarter
Oct 29
Full
Nov 6
Last Quarter
Nov 13
New

Hourly Weather History & Observations

Time (ADT) Temp. Windchill Dew Point Humidity Pressure Visibility Wind Dir Wind Speed Gust Speed Precip Events Conditions
12:00 AM 50 °F - 48 °F 89% 29.51 in - WSW 15.0 mph - -  
12:00 AM 50.2 °F - 47.7 °F 91% 29.51 in - WSW 15.0 mph 24.2 mph 3.23 in   Unknown
1:00 AM 46.9 °F - 43.9 °F 89% 29.54 in - West 13.8 mph - N/A   Unknown
3:00 AM 44 °F - 38 °F 71% 29.60 in - West 16.1 mph - -  
3:00 AM 44.2 °F 37.0 °F 37.8 °F 78% 29.60 in - West 16.1 mph 23.0 mph N/A   Unknown
4:00 AM 41.7 °F 35.2 °F 36.7 °F 82% 29.62 in - WSW 11.5 mph - N/A   Unknown
5:00 AM 41.4 °F 34.7 °F 36.1 °F 82% 29.63 in - WSW 11.5 mph - N/A   Unknown
6:00 AM 41 °F - 37 °F 80% 29.66 in - WSW 10.4 mph - -  
6:00 AM 41.4 °F 35.2 °F 37.0 °F 85% 29.66 in - WSW 10.4 mph - N/A   Unknown
7:00 AM 42.3 °F 35.9 °F 37.4 °F 83% 29.68 in - WSW 11.5 mph 18.4 mph N/A   Unknown
8:00 AM 40.3 °F 33.9 °F 36.1 °F 85% 29.70 in - WSW 10.4 mph - N/A   Unknown
9:00 AM 43 °F - 38 °F 76% 29.71 in - West 12.7 mph - -  
9:00 AM 42.8 °F 36.2 °F 37.9 °F 83% 29.71 in - West 12.7 mph 18.4 mph N/A   Unknown
10:00 AM 45.3 °F 38.7 °F 39.7 °F 81% 29.74 in - West 15.0 mph 21.9 mph N/A   Unknown
11:00 AM 46.6 °F - 40.3 °F 79% 29.75 in - WNW 19.6 mph 27.6 mph N/A   Unknown
12:00 PM 47 °F - 41 °F 71% 29.76 in - WNW 16.1 mph - -  
12:00 PM 46.6 °F - 40.6 °F 80% 29.76 in - WNW 16.1 mph 24.2 mph N/A   Unknown
1:00 PM 46.8 °F - 40.6 °F 79% 29.75 in - WNW 16.1 mph 23.0 mph N/A   Unknown
2:00 PM 46.6 °F - 40.8 °F 80% 29.74 in - WNW 15.0 mph - N/A   Unknown
3:00 PM 47 °F - 41 °F 73% 29.74 in - WNW 18.4 mph - -  
3:00 PM 46.6 °F - 41.0 °F 81% 29.74 in - WNW 18.4 mph 25.3 mph N/A   Unknown
4:00 PM 46.0 °F 38.8 °F 40.3 °F 80% 29.76 in - NW 18.4 mph - N/A   Unknown
5:00 PM 46.0 °F 38.8 °F 39.6 °F 78% 29.77 in - NW 18.4 mph - N/A   Unknown
6:00 PM 47 °F - 40 °F 69% 29.78 in - NW 20.7 mph - -  
6:00 PM 46.6 °F - 40.1 °F 78% 29.78 in - NW 20.7 mph 27.6 mph N/A   Unknown
7:00 PM 46.8 °F - 39.6 °F 76% 29.78 in - NNW 20.7 mph 27.6 mph N/A   Unknown
8:00 PM 46.9 °F - 39.0 °F 74% 29.80 in - NNW 19.6 mph 27.6 mph N/A   Unknown
9:00 PM 47 °F - 40 °F 67% 29.82 in - NW 18.4 mph - -  
9:00 PM 47.3 °F - 39.6 °F 74% 29.82 in - NW 18.4 mph 24.2 mph N/A   Unknown
10:00 PM 46.9 °F - 41.4 °F 81% 29.83 in - North 17.3 mph - N/A   Unknown
11:00 PM 46.2 °F 39.5 °F 41.4 °F 83% 29.85 in - North 16.1 mph 23.0 mph N/A   Unknown